N5AJY Weather Reports


time (UTC)temp
C
wind
direction
speed
KPH
gust
KPH
rain 1hr
cm
rain 24hr
cm
rain mn
cm
humidity
%
barometer
mb
20260502183154 20 0 0.0 0.0 0.00 0.00 0.00 42 1017.1
20260502182653 20 0 0.0 0.0 0.00 0.00 0.00 42 1017.1
20260502182154 19 0 0.0 0.0 0.00 0.00 0.00 45 1017.2
20260502181653 19 0 0.0 0.0 0.00 0.00 0.00 44 1017.2
20260502181154 19 0 0.0 0.0 0.00 0.00 0.00 41 1017.3
20260502180653 19 0 0.0 0.0 0.00 0.00 0.00 42 1017.3
20260502180154 19 0 0.0 0.0 0.00 0.00 0.00 43 1017.5
20260502170152 18 0 0.0 0.0 0.00 0.00 0.00 46 1017.9
20260502164153 17 0 0.0 0.0 0.00 0.00 0.00 46 1018.0
20260502163654 17 0 0.0 0.0 0.00 0.00 0.00 45 1018.0
20260502163153 17 0 0.0 0.0 0.00 0.00 0.00 47 1018.0
20260502162153 17 0 0.0 0.0 0.00 0.00 0.00 46 1018.0
20260502161654 17 0 0.0 0.0 0.00 0.00 0.00 47 1017.9
20260502161153 17 350 0.0 1.6 0.00 0.00 0.00 47 1017.9
20260502160652 17 350 0.0 1.6 0.00 0.00 0.00 46 1017.9
20260502160153 17 0 0.0 0.0 0.00 0.00 0.00 48 1017.9
20260502152154 17 0 0.0 0.0 0.00 0.00 0.00 50 1017.9
20260502151656 16 0 0.0 0.0 0.00 0.00 0.00 52 1017.9
20260502151153 16 0 0.0 0.0 0.00 0.00 0.00 53 1017.9
20260502150654 16 0 0.0 0.0 0.00 0.00 0.00 53 1017.9
20260502150153 16 0 0.0 0.0 0.00 0.00 0.00 53 1018.0
20260502130653 13 0 0.0 0.0 0.00 0.00 0.00 78 1017.1
20260502130153 13 0 0.0 0.0 0.00 0.00 0.00 79 1017.0
20260502123655 11 0 0.0 0.0 0.00 0.00 0.00 83 1016.7
20260502123153 11 0 0.0 0.0 0.00 0.00 0.00 84 1016.7
20260502122654 11 0 0.0 0.0 0.00 0.00 0.00 84 1016.7
20260502122154 10 0 0.0 0.0 0.00 0.00 0.00 83 1016.6
20260502121654 10 0 0.0 0.0 0.00 0.00 0.00 83 1016.6
20260502121153 10 0 0.0 0.0 0.00 0.00 0.00 83 1016.5
20260502120654 10 0 0.0 0.0 0.00 0.00 0.00 83 1016.5
20260502120153 10 0 0.0 0.0 0.00 0.00 0.00 83 1016.4
20260502115654 10 0 0.0 0.0 0.00 0.00 0.00 83 1016.3
20260502115153 10 0 0.0 0.0 0.00 0.00 0.00 83 1016.2
20260502114656 10 0 0.0 0.0 0.00 0.00 0.00 83 1016.0
20260502114153 10 0 0.0 0.0 0.00 0.00 0.00 83 1016.1
20260502113652 10 0 0.0 0.0 0.00 0.00 0.00 83 1016.1
20260502113157 10 0 0.0 0.0 0.00 0.00 0.00 83 1015.9
20260502112653 10 0 0.0 0.0 0.00 0.00 0.00 83 1015.9
20260502111654 10 0 0.0 0.0 0.00 0.00 0.00 83 1015.9
20260502111157 10 0 0.0 0.0 0.00 0.00 0.00 83 1015.9
20260502110653 10 0 0.0 0.0 0.00 0.00 0.00 83 1015.8
20260502110153 10 0 0.0 0.0 0.00 0.00 0.00 83 1015.8
20260502105653 10 0 0.0 0.0 0.00 0.00 0.00 83 1015.7
20260502105154 10 0 0.0 0.0 0.00 0.00 0.00 83 1015.6
20260502104656 10 0 0.0 0.0 0.00 0.00 0.00 83 1015.7
20260502104154 10 0 0.0 0.0 0.00 0.00 0.00 83 1015.7
20260502103653 10 0 0.0 0.0 0.00 0.00 0.00 84 1015.5
20260502103155 10 0 0.0 0.0 0.00 0.00 0.00 85 1015.7
20260502102656 10 0 0.0 0.0 0.00 0.00 0.00 85 1015.6
20260502102153 11 0 0.0 0.0 0.00 0.00 0.00 85 1015.5
20260502101654 11 0 0.0 0.0 0.00 0.00 0.00 85 1015.3
20260502101152 11 0 0.0 0.0 0.00 0.00 0.00 83 1015.4
20260502100653 11 0 0.0 0.0 0.00 0.00 0.00 83 1015.4
20260502100153 11 0 0.0 0.0 0.00 0.00 0.00 82 1015.5
20260502091153 11 0 0.0 0.0 0.00 0.00 0.00 76 1015.3
20260502090652 11 0 0.0 0.0 0.00 0.00 0.00 77 1015.3
20260502090154 11 0 0.0 0.0 0.00 0.00 0.00 76 1015.4
20260502071153 9 0 0.0 0.0 0.00 0.00 0.00 83 1015.0
20260502070654 9 0 0.0 0.0 0.00 0.00 0.00 82 1015.0
20260502070153 8 0 0.0 0.0 0.00 0.00 0.00 81 1015.0
20260502065653 8 0 0.0 0.0 0.00 0.00 0.00 80 1015.0
20260502065153 8 0 0.0 0.0 0.00 0.00 0.00 80 1015.0
20260502064652 8 0 0.0 0.0 0.00 0.00 0.00 80 1015.0
20260502063652 8 0 0.0 0.0 0.00 0.00 0.00 80 1015.1
20260502063153 8 0 0.0 0.0 0.00 0.00 0.00 80 1015.1
20260502062654 8 0 0.0 0.0 0.00 0.00 0.00 81 1015.1
20260502062154 8 0 0.0 0.0 0.00 0.00 0.00 81 1015.0
20260502061652 8 0 0.0 0.0 0.00 0.00 0.00 81 1014.9
20260502061154 8 0 0.0 0.0 0.00 0.00 0.00 81 1014.8
20260502060653 8 0 0.0 0.0 0.00 0.00 0.00 80 1014.8
20260502060154 8 0 0.0 0.0 0.00 0.00 0.00 79 1014.8
20260502055653 9 0 0.0 0.0 0.00 0.00 0.00 78 1014.8
20260502055154 9 0 0.0 0.0 0.00 0.00 0.00 78 1014.8
20260502054653 9 0 0.0 0.0 0.00 0.00 0.00 76 1014.8
20260502054154 9 0 0.0 0.0 0.00 0.00 0.00 77 1014.8
20260502053653 9 0 0.0 0.0 0.00 0.00 0.00 78 1014.8
20260502053154 10 0 0.0 0.0 0.00 0.00 0.00 78 1014.7
20260502052653 10 0 0.0 0.0 0.00 0.00 0.00 78 1014.6
20260502052152 10 0 0.0 0.0 0.00 0.00 0.00 77 1014.6
20260502051653 10 0 0.0 0.0 0.00 0.00 0.00 77 1014.6
20260502051152 10 0 0.0 0.0 0.00 0.00 0.00 77 1014.7
20260502050654 10 0 0.0 0.0 0.00 0.00 0.00 76 1014.8
20260502050153 10 0 0.0 0.0 0.00 0.00 0.00 77 1014.8
20260502045653 10 0 0.0 0.0 0.00 0.00 0.00 77 1014.8
20260502045154 10 0 0.0 0.0 0.00 0.00 0.00 78 1014.8
20260502044654 10 0 0.0 0.0 0.00 0.00 0.00 78 1014.9
20260502044154 10 0 0.0 0.0 0.00 0.00 0.00 77 1015.0
20260502043653 10 0 0.0 0.0 0.00 0.00 0.00 77 1014.9
20260502043154 10 0 0.0 0.0 0.00 0.00 0.00 77 1015.0
20260502042653 10 0 0.0 0.0 0.00 0.00 0.00 77 1015.0
20260502042154 10 0 0.0 0.0 0.00 0.00 0.00 76 1015.0
20260502041653 10 0 0.0 0.0 0.00 0.00 0.00 76 1014.9
20260502041152 10 0 0.0 0.0 0.00 0.00 0.00 75 1015.0
20260502040653 10 0 0.0 0.0 0.00 0.00 0.00 74 1015.0
20260502040152 10 0 0.0 0.0 0.00 0.00 0.00 74 1015.0
20260502035653 10 0 0.0 0.0 0.00 0.00 0.00 75 1015.0
20260502035152 11 0 0.0 0.0 0.00 0.00 0.00 74 1015.0
20260502034654 11 0 0.0 0.0 0.00 0.00 0.00 73 1015.1
20260502034153 11 0 0.0 0.0 0.00 0.00 0.00 72 1015.1
20260502033654 11 0 0.0 0.0 0.00 0.00 0.00 73 1015.0
20260502033153 11 0 0.0 0.0 0.00 0.00 0.00 72 1015.0
20260502032654 11 0 0.0 0.0 0.00 0.00 0.00 72 1015.0
20260502032153 11 0 0.0 0.0 0.00 0.00 0.00 70 1015.1
20260502031654 11 0 0.0 0.0 0.00 0.00 0.00 71 1015.0
20260502031153 11 0 0.0 0.0 0.00 0.00 0.00 69 1015.1
20260502030652 11 0 0.0 0.0 0.00 0.00 0.00 69 1015.0
20260502030153 12 0 0.0 0.0 0.00 0.00 0.00 69 1014.9
20260502025652 12 0 0.0 0.0 0.00 0.00 0.00 68 1014.9
20260502025153 12 0 0.0 0.0 0.00 0.00 0.00 67 1014.9
20260502024655 12 0 0.0 0.0 0.00 0.00 0.00 68 1014.8
20260502024154 12 0 0.0 0.0 0.00 0.00 0.00 69 1014.8
20260502023653 12 0 0.0 0.0 0.00 0.00 0.00 67 1014.7
20260502023154 12 0 0.0 0.0 0.00 0.00 0.00 67 1014.5
20260502022654 12 0 0.0 0.0 0.00 0.00 0.00 65 1014.6
20260502022153 12 0 0.0 0.0 0.00 0.00 0.00 65 1014.5
20260502021654 12 0 0.0 0.0 0.00 0.00 0.00 63 1014.4
20260502021153 13 0 0.0 0.0 0.00 0.00 0.00 63 1014.3
20260502020654 13 0 0.0 0.0 0.00 0.00 0.00 62 1014.3
20260502020153 13 0 0.0 0.0 0.00 0.00 0.00 62 1014.2
20260502015654 13 0 0.0 0.0 0.00 0.00 0.00 60 1014.2
20260502015153 13 0 0.0 0.0 0.00 0.00 0.00 60 1014.1
20260502014654 13 0 0.0 0.0 0.00 0.00 0.00 59 1014.0
20260502014153 14 0 0.0 0.0 0.00 0.00 0.00 57 1013.9
20260502013654 14 0 0.0 0.0 0.00 0.00 0.00 55 1013.9
20260502013153 15 0 0.0 0.0 0.00 0.00 0.00 57 1013.8
20260502012653 15 0 0.0 0.0 0.00 0.00 0.00 55 1013.7
20260502012153 15 0 0.0 0.0 0.00 0.00 0.00 54 1013.7
20260502011653 15 0 0.0 0.0 0.00 0.00 0.00 52 1013.7
20260502011154 15 0 0.0 0.0 0.00 0.00 0.00 47 1013.5
20260502010653 16 0 0.0 0.0 0.00 0.00 0.00 47 1013.4
20260502010154 16 0 0.0 0.0 0.00 0.00 0.00 48 1013.5
20260502005654 16 0 0.0 0.0 0.00 0.00 0.00 48 1013.5
20260502005153 16 0 0.0 0.0 0.00 0.00 0.00 50 1013.5
20260502004654 16 0 0.0 0.0 0.00 0.00 0.00 46 1013.4
20260502004153 17 0 0.0 0.0 0.00 0.00 0.00 44 1013.4
20260502003654 17 0 0.0 0.0 0.00 0.00 0.00 43 1013.4
20260502003153 17 0 0.0 0.0 0.00 0.00 0.00 43 1013.4
20260502002654 17 0 0.0 0.0 0.00 0.00 0.00 42 1013.4
20260502002153 17 0 0.0 0.0 0.00 0.00 0.00 42 1013.3
20260502001652 17 0 0.0 0.0 0.00 0.00 0.00 40 1013.2
20260502001153 17 0 0.0 0.0 0.00 0.00 0.00 39 1013.1
20260502000652 17 0 0.0 0.0 0.00 0.00 0.00 39 1013.1
20260502000154 18 0 0.0 0.0 0.00 0.00 0.00 39 1013.0
20260501235653 18 0 0.0 0.0 0.00 0.00 0.00 39 1012.9
20260501235154 18 0 0.0 0.0 0.00 0.00 0.00 38 1013.0
20260501234654 18 0 0.0 0.0 0.00 0.00 0.00 37 1012.9
20260501234154 18 0 0.0 0.0 0.00 0.00 0.00 38 1012.9
20260501233653 18 0 0.0 0.0 0.00 0.00 0.00 37 1012.9
20260501233154 18 0 0.0 0.0 0.00 0.00 0.00 36 1012.8
20260501232653 18 0 0.0 0.0 0.00 0.00 0.00 36 1012.9
20260501232152 18 0 0.0 0.0 0.00 0.00 0.00 35 1012.8
20260501231653 18 0 0.0 0.0 0.00 0.00 0.00 37 1012.7
20260501231152 18 0 0.0 0.0 0.00 0.00 0.00 35 1012.8
20260501230653 18 0 0.0 0.0 0.00 0.00 0.00 34 1012.8
20260501230153 18 0 0.0 0.0 0.00 0.00 0.00 33 1012.9
20260501225655 18 0 0.0 0.0 0.00 0.00 0.00 35 1012.9
20260501225153 18 66 0.0 1.6 0.00 0.00 0.00 35 1012.8
20260501224654 18 66 0.0 1.6 0.00 0.00 0.00 34 1012.9
20260501224153 18 0 0.0 0.0 0.00 0.00 0.00 35 1012.8
20260501223654 18 0 0.0 0.0 0.00 0.00 0.00 35 1012.7
20260501223153 18 0 0.0 0.0 0.00 0.00 0.00 36 1012.8
20260501222654 18 0 0.0 0.0 0.00 0.00 0.00 37 1012.8
20260501222153 18 0 0.0 0.0 0.00 0.00 0.00 35 1012.7
20260501221654 18 67 0.0 4.8 0.00 0.00 0.00 35 1012.7
20260501221153 18 67 0.0 4.8 0.00 0.00 0.00 36 1012.7
20260501220653 18 0 0.0 0.0 0.00 0.00 0.00 37 1012.6
20260501220154 18 0 0.0 0.0 0.00 0.00 0.00 36 1012.6
20260501215653 18 49 0.0 1.6 0.00 0.00 0.00 34 1012.5
20260501215152 18 47 0.0 1.6 0.00 0.00 0.00 35 1012.4
20260501214654 19 46 0.0 1.6 0.00 0.00 0.00 34 1012.4
20260501214153 19 0 0.0 0.0 0.00 0.00 0.00 34 1012.5
20260501213654 19 0 0.0 0.0 0.00 0.00 0.00 34 1012.6
20260501213153 18 355 0.0 1.6 0.00 0.00 0.00 36 1012.6
20260501212654 18 355 0.0 1.6 0.00 0.00 0.00 33 1012.7
20260501212153 19 0 0.0 0.0 0.00 0.00 0.00 33 1012.7
20260501211655 19 77 0.0 3.2 0.00 0.00 0.00 33 1012.8
20260501210652 19 0 0.0 0.0 0.00 0.00 0.00 33 1012.8
20260501210155 19 7 0.0 4.8 0.00 0.00 0.00 35 1012.9
20260501205653 19 7 0.0 4.8 0.00 0.00 0.00 32 1012.9
20260501204653 19 0 0.0 0.0 0.00 0.00 0.00 34 1012.9
20260501204152 19 0 0.0 0.0 0.00 0.00 0.00 35 1013.1
20260501203653 18 0 0.0 0.0 0.00 0.00 0.00 32 1013.2
20260501203152 19 0 0.0 0.0 0.00 0.00 0.00 33 1013.4
20260501202653 20 0 0.0 0.0 0.00 0.00 0.00 37 1013.4
20260501202152 19 0 0.0 0.0 0.00 0.00 0.00 35 1013.6
20260501201653 20 0 0.0 0.0 0.00 0.00 0.00 36 1013.8
20260501201152 20 0 0.0 0.0 0.00 0.00 0.00 35 1013.9
20260501200654 19 0 0.0 0.0 0.00 0.00 0.00 38 1013.9
20260501200153 19 0 0.0 0.0 0.00 0.00 0.00 40 1014.1
20260501195153 20 0 0.0 0.0 0.00 0.00 0.00 38 1014.4
20260501194654 19 0 0.0 0.0 0.00 0.00 0.00 38 1014.4
20260501194153 19 0 0.0 0.0 0.00 0.00 0.00 38 1014.5
20260501193654 19 0 0.0 0.0 0.00 0.00 0.00 40 1014.6
20260501193153 20 0 0.0 0.0 0.00 0.00 0.00 42 1014.8
20260501192652 20 0 0.0 0.0 0.00 0.00 0.00 37 1014.7
20260501192153 20 0 0.0 0.0 0.00 0.00 0.00 43 1014.8
20260501191652 19 0 0.0 0.0 0.00 0.00 0.00 39 1015.0
20260501191153 19 0 0.0 0.0 0.00 0.00 0.00 41 1015.1
20260501190653 19 0 0.0 0.0 0.00 0.00 0.00 42 1015.0
20260501190153 18 0 0.0 0.0 0.00 0.00 0.00 43 1015.1
20260501185654 19 0 0.0 0.0 0.00 0.00 0.00 42 1015.1
20260501185153 19 0 0.0 0.0 0.00 0.00 0.00 43 1015.2
20260501184655 19 0 0.0 0.0 0.00 0.00 0.00 45 1015.3
20260501184153 19 12 0.0 1.6 0.00 0.00 0.00 44 1015.3
20260501183654 18 12 0.0 1.6 0.00 0.00 0.00 43 1015.4